(213812) = 2003 NE

Discovered at Haleakala on 2003-07-01 by NEAT.

Orbit

Orbit type: Mars-crosser

Note: WebGL enabled browser required.

epoch2024-03-31.0
epoch JD2460400.5
perihelion date2023-04-02.09664
perihelion JD2460036.59664
argument of perihelion (°)231.26949
ascending node (°)117.47327
inclination (°)7.80857
eccentricity0.3265728
perihelion distance (AU)1.4805069
Tisserand w.r.t. Jupiter3.6
ΔV w.r.t. Earth (km/sec)7.7
semimajor axis (AU)2.1984663
mean anomaly (°)110.02976
mean daily motion (°/day)0.30235990
aphelion distance (AU)2.916
period (years)3.26
P-vector [x]0.97434295
P-vector [y]-0.14000794
P-vector [z]-0.17622031
Q-vector [x]0.19006700
Q-vector [y]0.93118753
Q-vector [z]0.31106965
absolute magnitude17.13
phase slope0.15
uncertainty0
referenceMPEC 2024-C93
observations used553
oppositions17
arc length (days)10122
first opposition used1996
last opposition used2024
residual rms (arc-secs)0.68
perturbers coarse indicatorM-v
perturbers precise indicator003Ek
first observation date used1996-05-22.0
last observation date used2024-02-08.0
computer nameMPCLINUX
JD of orbit computation2456731.463237
perihelion JD uncertainty (days)3.6137E-05
argument of perihelion uncertainty (°)2.8374E-05
ascending node uncertainty (°)2.7536E-05
inclination uncertainty (°)3.8031E-06
eccentricity uncertainty 4.8116E-08
perihelion distance uncertainty (AU)1.0145E-07
Minimum Orbit Intersection Distances (in AU)
for orbit epoch: 2460200.5, reference: E2024-C93
Mercury1.09682
Venus0.75497
Earth0.48886
Mars0.13198
Jupiter2.52001
Saturn6.43782
Uranus15.5441
Neptune27.6354

Observations

557 total observations over interval: 1996 05 22.95906 – 2024 02 08.290889
These data are available for download (format description).

Date (UT) J2000 RA J2000 Dec Magn Location Ref
1996 05 22.95906 14 39 23.30 -02 34 56.5   599 – Campo Imperatore-CINEOS MPS 149507
1996 05 22.97465 14 39 22.40 -02 34 56.3   599 – Campo Imperatore-CINEOS MPS 149507
2000 12 30.22801 05 34 02.78 +16 44 11.3 19.3   704 – Lincoln Laboratory ETS, New Mexico MPS 149507
2000 12 30.24300 05 34 01.78 +16 44 16.5 19.7   704 – Lincoln Laboratory ETS, New Mexico MPS 149507
2000 12 30.25810 05 34 00.63 +16 44 21.5 19.7   704 – Lincoln Laboratory ETS, New Mexico MPS 149507
2002 03 12.295660 12 16 32.574 +09 18 53.15 21.43 V 645 – Apache Point-Sloan Digital Sky Survey MPS 149507
2002 03 12.299132 12 16 32.381 +09 18 54.80 22.30   645 – Apache Point-Sloan Digital Sky Survey MPS 149507
2003 07 01.56489 23 09 20.77 -08 28 25.5 19.7   608 – Haleakala-AMOS MPS 81922
2003 07 01.57516 23 09 21.95 -08 28 24.5 20.1   608 – Haleakala-AMOS MPS 81922
2003 07 01.58600 23 09 23.19 -08 28 22.8 20.0   608 – Haleakala-AMOS MPS 81922
2003 07 02.09403 23 10 23.85 -08 27 29.1 18.5 R 620 – Observatorio Astronomico de Mallorca MPS 81922
2003 07 02.10847 23 10 25.53 -08 27 27.6 18.8 R 620 – Observatorio Astronomico de Mallorca MPS 81922
2003 07 02.12290 23 10 27.18 -08 27 26.3 18.4 R 620 – Observatorio Astronomico de Mallorca MPS 81922
2003 07 02.42917 23 11 03.68 -08 26 53.3 18.6 R 926 – Tenagra II Observatory, Nogales MPS 81922
2003 07 02.43241 23 11 04.02 -08 26 52.2 18.6 R 926 – Tenagra II Observatory, Nogales MPS 81922
2003 07 02.43544 23 11 04.38 -08 26 53.6 18.9 R 926 – Tenagra II Observatory, Nogales MPS 81922
2003 07 02.44907 23 11 05.99 -08 26 51.0 18.5 R 673 – Table Mountain Observatory, Wrightwood MPS 81922
2003 07 02.45127 23 11 06.26 -08 26 50.8 18.5 R 673 – Table Mountain Observatory, Wrightwood MPS 81922
2003 07 02.45440 23 11 06.64 -08 26 50.5 18.5 R 673 – Table Mountain Observatory, Wrightwood MPS 81922
2003 07 02.45625 23 11 06.82 -08 26 50.3 18.5 R 673 – Table Mountain Observatory, Wrightwood MPS 81922
2003 07 03.47523 23 13 07.28 -08 25 12.0 19.5 R 673 – Table Mountain Observatory, Wrightwood MPS 81922
2003 07 03.47662 23 13 07.53 -08 25 11.8   673 – Table Mountain Observatory, Wrightwood MPS 81922
2003 07 03.47928 23 13 07.90 -08 25 11.5   673 – Table Mountain Observatory, Wrightwood MPS 81922
2003 07 03.48275 23 13 08.29 -08 25 11.1   673 – Table Mountain Observatory, Wrightwood MPS 81922
2003 07 03.48588 23 13 08.62 -08 25 10.8   673 – Table Mountain Observatory, Wrightwood MPS 81922
2003 07 03.48877 23 13 08.94 -08 25 10.4   673 – Table Mountain Observatory, Wrightwood MPS 81922
2003 08 29.49741 00 32 37.27 -14 22 55.9 17.8   608 – Haleakala-AMOS MPS 84056
2003 08 29.50851 00 32 37.54 -14 23 04.5 17.8   608 – Haleakala-AMOS MPS 84056
2003 08 29.51897 00 32 37.76 -14 23 12.5 17.8   608 – Haleakala-AMOS MPS 84056
2003 08 31.32544 00 33 26.51 -14 46 39.9 17.3   704 – Lincoln Laboratory ETS, New Mexico MPS 84056
2003 08 31.33731 00 33 26.72 -14 46 49.4 17.3   704 – Lincoln Laboratory ETS, New Mexico MPS 84056
2003 08 31.34904 00 33 26.92 -14 46 58.2 17.4   704 – Lincoln Laboratory ETS, New Mexico MPS 84056
2003 08 31.36123 00 33 27.18 -14 47 08.1 17.2   704 – Lincoln Laboratory ETS, New Mexico MPS 84056
2003 08 31.37303 00 33 27.42 -14 47 16.6 17.3   704 – Lincoln Laboratory ETS, New Mexico MPS 84056
2003 09 03.35129 00 34 30.00 -15 25 51.1 17.5   704 – Lincoln Laboratory ETS, New Mexico MPS 84056
2003 09 03.36302 00 34 30.14 -15 26 00.2 17.6   704 – Lincoln Laboratory ETS, New Mexico MPS 84056
2003 09 03.37487 00 34 30.28 -15 26 09.9 17.8   704 – Lincoln Laboratory ETS, New Mexico MPS 84056
2003 09 03.38646 00 34 30.42 -15 26 18.5 17.6   704 – Lincoln Laboratory ETS, New Mexico MPS 84056
2003 09 03.39813 00 34 30.53 -15 26 27.1 17.9   704 – Lincoln Laboratory ETS, New Mexico MPS 84056
2003 09 04.35652 00 34 46.42 -15 38 43.8 17.5   704 – Lincoln Laboratory ETS, New Mexico MPS 84056
2003 09 04.36985 00 34 46.53 -15 38 54.3 17.4   704 – Lincoln Laboratory ETS, New Mexico MPS 84056
2003 09 04.38317 00 34 46.63 -15 39 04.8 17.4   704 – Lincoln Laboratory ETS, New Mexico MPS 84056
2003 09 05.31958 00 35 00.23 -15 51 00.1 17.2   704 – Lincoln Laboratory ETS, New Mexico MPS 84056
2003 09 05.34636 00 35 00.48 -15 51 20.1 17.5   704 – Lincoln Laboratory ETS, New Mexico MPS 84056
2003 09 05.35970 00 35 00.57 -15 51 30.5 17.5   704 – Lincoln Laboratory ETS, New Mexico MPS 84056
2003 09 05.37318 00 35 00.70 -15 51 41.3 17.5   704 – Lincoln Laboratory ETS, New Mexico MPS 84056
2003 09 16.28573 00 35 20.80 -17 58 29.0 17.0   704 – Lincoln Laboratory ETS, New Mexico MPS 84545
2003 09 16.29772 00 35 20.62 -17 58 36.4 17.2   704 – Lincoln Laboratory ETS, New Mexico MPS 84545
2003 09 16.30988 00 35 20.45 -17 58 44.2 17.3   704 – Lincoln Laboratory ETS, New Mexico MPS 84545
2003 09 16.32195 00 35 20.26 -17 58 51.9 17.2   704 – Lincoln Laboratory ETS, New Mexico MPS 84545
2003 09 16.33404 00 35 20.06 -17 58 59.1 17.3   704 – Lincoln Laboratory ETS, New Mexico MPS 84545
2003 09 19.32839 00 34 48.89 -18 27 35.3 16.9 R 699 – Lowell Observatory-LONEOS MPS 85233
2003 09 19.34168 00 34 48.64 -18 27 41.8   699 – Lowell Observatory-LONEOS MPS 85233
2003 09 19.35495 00 34 48.39 -18 27 49.1   699 – Lowell Observatory-LONEOS MPS 85233
2003 09 19.36826 00 34 48.15 -18 27 56.8   699 – Lowell Observatory-LONEOS MPS 85233
2003 09 28.32268 00 32 17.52 -19 29 29.3 17.0 R 699 – Lowell Observatory-LONEOS MPS 86927
2003 09 28.33604 00 32 17.17 -19 29 33.1   699 – Lowell Observatory-LONEOS MPS 86927
2003 09 28.34930 00 32 16.83 -19 29 36.4   699 – Lowell Observatory-LONEOS MPS 86927
2003 09 28.36262 00 32 16.49 -19 29 40.0   699 – Lowell Observatory-LONEOS MPS 86927
2003 10 17.20555 00 27 28.60 -19 17 17.2 17.9   704 – Lincoln Laboratory ETS, New Mexico MPS 87311
2003 10 17.21755 00 27 28.47 -19 17 12.1 18.3   704 – Lincoln Laboratory ETS, New Mexico MPS 87311
2003 10 17.22937 00 27 28.32 -19 17 07.7 18.5   704 – Lincoln Laboratory ETS, New Mexico MPS 87311
2003 10 17.25302 00 27 27.98 -19 16 59.9 18.8   704 – Lincoln Laboratory ETS, New Mexico MPS 87311
2003 11 20.17988 00 40 24.49 -12 30 57.5 19.1 V 703 – Catalina Sky Survey MPS 90973
2003 11 20.19228 00 40 25.15 -12 30 44.9 18.8 V 703 – Catalina Sky Survey MPS 90973
2003 11 20.20463 00 40 25.58 -12 30 32.8 18.9 V 703 – Catalina Sky Survey MPS 90973
2003 11 20.21698 00 40 26.33 -12 30 20.1 18.2 V 703 – Catalina Sky Survey MPS 90973
2006 06 18.32859 16 47 16.13 -12 30 55.4 18.8 R 644 – Palomar Mountain/NEAT MPS 173886
2006 06 18.32976 16 47 16.04 -12 30 55.3 18.4 R 644 – Palomar Mountain/NEAT MPS 173886
2006 06 18.34979 16 47 14.54 -12 30 59.0 19.0 R 644 – Palomar Mountain/NEAT MPS 173886
2006 06 18.35096 16 47 14.45 -12 30 59.1 18.6 R 644 – Palomar Mountain/NEAT MPS 173886
2006 06 18.37150 16 47 12.93 -12 31 02.5 18.8 R 644 – Palomar Mountain/NEAT MPS 173886
2006 06 18.37652 16 47 12.54 -12 31 03.5 18.6 R 644 – Palomar Mountain/NEAT MPS 173886
2008 01 10.42433 10 02 45.63 +15 30 01.4 21.1 V G96 – Mt. Lemmon Survey MPS 233352
2008 01 10.42980 10 02 45.42 +15 30 03.4 21.2 V G96 – Mt. Lemmon Survey MPS 233352
2008 01 10.43532 10 02 45.24 +15 30 05.6 21.2 V G96 – Mt. Lemmon Survey MPS 233352
2008 01 10.44082 10 02 45.02 +15 30 07.4 21.2 V G96 – Mt. Lemmon Survey MPS 233352
2008 01 11.41226 10 02 08.98 +15 36 29.9 21.0 V G96 – Mt. Lemmon Survey MPS 233352
2008 01 11.41988 10 02 08.62 +15 36 32.7 21.0 V G96 – Mt. Lemmon Survey MPS 233352
2008 01 11.42752 10 02 08.34 +15 36 35.7 20.5 V G96 – Mt. Lemmon Survey MPS 233352
2008 01 11.43508 10 02 08.01 +15 36 38.8 21.0 V G96 – Mt. Lemmon Survey MPS 233352
2008 01 11.44289 10 02 07.74 +15 36 41.8 20.6 V 691 – Steward Observatory, Kitt Peak-Spacewatch MPS 233352
2008 01 11.46052 10 02 07.05 +15 36 49.2 20.6 V 691 – Steward Observatory, Kitt Peak-Spacewatch MPS 233352
2008 01 11.47816 10 02 06.32 +15 36 56.0 20.9 V 691 – Steward Observatory, Kitt Peak-Spacewatch MPS 233352
2008 01 19.44684 09 56 14.86 +16 33 16.2 21.0 V 691 – Steward Observatory, Kitt Peak-Spacewatch MPS 235041
2008 01 19.46496 09 56 13.93 +16 33 24.5 21.1 V 691 – Steward Observatory, Kitt Peak-Spacewatch MPS 235041
2008 01 19.48333 09 56 12.97 +16 33 32.3 20.7 V 691 – Steward Observatory, Kitt Peak-Spacewatch MPS 235041
